Regional Weather Roundup
Issued by NWS

Home | Current Version | Previous Version | Text Only | Print | Product List | Glossary On
Versions: 1 2 3 4 5 6 7 8 9 10 11 12 13 14 15 16 17 18 19 20 21 22 23 24 25 26 27 28 29 30 31 32 33 34 35 36 37 38 39 40 41 42 43 44 45 46 47 48 49 50
000
ASCA42 TJSJ 300610
RWRPR
PUERTO RICO/U.S. VIRGIN ISLANDS HOURLY WEATHER ROUNDUP
NATIONAL WEATHER SERVICE SAN JUAN PR
200 AM AST THU JUL 30 2015

PRZ001-004-300700-
PUERTO RICO

CITY           SKY/WX    TMP DP  RH WIND       PRES   REMARKS
SAN JUAN LMM   PTCLDY    81  73  78 E6        30.04F
PONCE          PTCLDY    79  72  78 NE6       30.00S
$$

PRZ006-007-300700-
U.S. VIRGIN ISLANDS

CITY           SKY/WX    TMP DP  RH WIND       PRES   REMARKS
CHARLOTTE AMA  CLEAR     82  72  69 E8        30.03F
CHRISTIANSTED  CLEAR     81  72  74 E12       30.04F
$$

HOURLY WEATHER ROUNDUP FOR THE NEWS MEDIA

CITY           SKY/WX    TMP DP  RH WIND       PRES   REMARKS
ORLANDO        PTCLDY    77  75  93 W3        29.98F
NEW YORK       PTCLDY    78  71  79 SW6       29.94S
NEWARK         PTCLDY    80  72  76 SW9       29.93S
CHICAGO        CLEAR     70  56  61 W8        30.02S
HARTFORD       CLEAR     69  67  93 SW5       29.91S
BOSTON         CLEAR     79  67  66 SW10      29.89S
DALLAS         CLEAR     88  63  43 SE6       30.04R
PHILADELPHIA   MOCLDY    80  72  76 SW8       29.95S
LOS ANGELES    MOCLDY    68  64  87 W8        29.99R
WASHINGTON DC  MOCLDY    77  71  82 S6        29.95F



USA.gov is the U.S. government's official web portal to all federal, state and local government web resources and services.